STARLINK-33916, 63792

Orbit data source: Space-Track

STARLINK-33916, 63792 is a payload satellite owned by SpaceX/Seattle (US) in LEO that was launched on Fri, 02 May 2025 UTC via an FALCON 9 launch vehicle from the Air Force Eastern Test Range (AFETR). Payload-class satellites include a variety of spacecraft equipped with specific instruments for various scientific and technological missions. These include communications satellites like Starlink; space stations such as the ISS; scientific satellites like the Hubble; Earth observation satellites from companies like Planet Labs, Umbra, and HawkEye 360; GPS; miniature CubeSats for education and research; and military/defense satellites.

Loading next visibility...
Identifier
63792, 2025-091T
Orbit
LEO
Country
Flag of USUS
Related business
Manufacturer
SpaceX/Seattle
Mission
Operational Commercial Communications
Bus & Motor
STARLINK V2MO, Unknown motor
Mass
575 kg wet, ~530 kg dry
Launch date (UTC)
2025-05-02 (1 year ago)
Launch vehicle
FALCON 9
Launch site
Air Force Eastern Test Range (AFETR)
Object type
Payload
Rocket body
Debris
Shape & HBR
Box + 2 Pan, 17.7 m
Radar Cross Section
36.964 m², Large (>1 m²)

Expand to show TLE details & history
Last TLE update: 19 hours ago

TLE from 19 hours ago
0 STARLINK-33916
1 63792U 25091T   26171.11492180  .00011053  00000-0  41037-3 0  9995
2 63792  43.0023 194.3575 0001850 275.8355  84.2285 15.27595310 64562
Epoch: 2026-06-20T02:45Z
TLE epoch observation values (Epoch: 2026-06-20T02:45:29.243Z)
Latitude
-0.00007°
Longitude
-115.34861°
Altitude
482.652 km
Speed
7.626 km/s
True Right ascension
12h 57m 25s
True Declination
0° 00' 00"
Sunlit
Object was in daylight at epoch
Visualization orbit readout
Latitude
Unknown
Longitude
Unknown
Altitude
Unknown
Speed
Unknown
Apparent Right ascension
Unknown
Apparent Declination
Unknown
Sunlit
N/A
Visualization observer readout
Local Sidereal Time
08:33:31
Azimuth
Unknown
Elevation
Unknown
Doppler factor
Unknown
Orbital elements
Apogee altitude
486.218 km
Perigee altitude
483.678 km
Semi-major axis
6,863.085 km
Eccentricity
0.00019
Inclination
43.0023°
RAAN
194.3575°
Arg. of periapsis
275.8355°
True anomaly
84.24959°
Mean anomaly
84.2285°
Eccentric anomaly
84.23905°
Mean motion
3.81737 °/min
Orbital period
94.31 mins
BSTAR
0.00041037
Loading maneuver chart data...
Computing Atmospheric mass density...
Loading historical data...
Loading historical data...
Loading historical data...
Loading historical data...
Loading historical data...
Loading historical data...
Loading historical data...

Documentation

Showing up to 5 results
|